AirNav   Pilot Hours Calculator
 
 1186 users online  

C59 Lake Lawn Airport
Delavan, Wisconsin, USA

GOING TO DELAVAN?


FAA INFORMATION EFFECTIVE 07 NOVEMBER 2019

Location

FAA Identifier: C59
Lat/Long: 42-38-02.8540N 088-36-04.0650W
42-38.047567N 088-36.067750W
42.6341261,-88.6011292
(estimated)
Elevation: 981 ft. / 299 m (estimated)
Variation: 02W (2005)
From city: 2 miles E of DELAVAN, WI
Time zone: UTC -6 (UTC -5 during Daylight Saving Time)
Zip code: 53115

Airport Operations

Airport use: Open to the public
Activation date: 04/1974
Control tower: no
ARTCC: CHICAGO CENTER
FSS: GREEN BAY FLIGHT SERVICE STATION
NOTAMs facility: GRB (NOTAM-D service available)
Attendance: UNATNDD
Wind indicator: yes
Segmented circle: no

Airport Communications

CTAF: 122.9
ROCKFORD APPROACH: 121.0 [0800-1600 MON-FRI; EXCP HOLS]
ROCKFORD DEPARTURE: 121.0 [0800-1600 MON-FRI; EXCP HOLS]
WX AWOS-3 at BUU (14 nm E): 125.275 (262-757-0907)
WX AWOS-3PT at 57C (14 nm NE): 118.125 (262-642-1845)
WX AWOS-3 at JVL (19 nm W): PHONE 608-758-1723

Nearby radio navigation aids

VOR radial/distance  VOR name  Freq  Var
JVLr075/22.7JANESVILLE VOR/DME114.3003E
BAEr204/32.1BADGER VOR/DME116.4002E
RFDr046/36.1ROCKFORD VOR/DME110.8001E
OBKr313/38.0NORTHBROOK VOR/DME113.0002W

 
NDB name  Hdg/Dist  Freq  Var  ID
LAKE LAWN187/3.940402WLVV .-.. ...- ...-
ROCK RIVER171/32.837101WRYV .-. -.-- ...-

Airport Services

Parking: tiedowns
Airframe service: NONE
Powerplant service: NONE
Bottled oxygen: NONE
Bulk oxygen: NONE

Runway Information

Runway 18/36

Dimensions: 4423 x 80 ft. / 1348 x 24 m
Surface: asphalt/L
RY 18/36 NUMEROUS LARGE CRACKS & VEGETATION GROWING THROUGH PAVEMENT ENTIRE LENGTH.
Runway edge markings: RWY MARKINGS FADED.
RUNWAY 18  RUNWAY 36
Latitude: 42-38.410683N42-37.685200N
Longitude: 088-36.025783W088-36.108883W
Elevation: 979.0 ft.967.0 ft.
Traffic pattern: leftleft
Runway heading: 187 magnetic, 185 true007 magnetic, 005 true
Displaced threshold: 320 ft.300 ft.
Markings: nonprecision, in poor conditionnonprecision, in poor condition
Runway end identifier lights: yes
OTS INDEFLY.
Touchdown point: yes, no lightsyes, no lights
Obstructions: 35 ft. tree, 200 ft. from runway, 60 ft. right of centerline
+4 FT FENCE 12 FT FM THLD; RD 40 FT FM THLD; +4 FT FENCE AT THLD 120 FT L.
50 ft. tree, 280 ft. from runway, 120 ft. left of centerline, 1:1 slope to clear
RD 50 FT FM THLD.

Airport Ownership and Management from official FAA records

Ownership: Privately-owned
Owner: DELEVAN LAKE LAWN MANAGEMENT
2400 EAST GENEVA ST
DELAVAN, WI 53115
Phone 262-728-7950
Manager: DANIEL LYNG
2400 EAST GENEVA ST
DELAVAN, WI 53115
Phone (262) 725-9127

Airport Operational Statistics

Aircraft operations: avg 50/week *
77% transient general aviation
19% local general aviation
2% military
2% air taxi
* for 12-month period ending 01 June 2017

Additional Remarks

ARPT CLSD FOR NIGHT OPNS.
LOW WING ACFT AVOID SOUTH TWY, 25 FT FM TWY CENTERLINE TO 3 FT FENCE.
FOR CD CTC CHICAGO ARTCC AT 630-906-8921.

Instrument Procedures

There are no published instrument procedures at C59.

Some nearby airports with instrument procedures:

C02 - Grand Geneva Resort Airport (9 nm E)
KBUU - Burlington Municipal Airport (14 nm E)
57C - East Troy Municipal Airport (14 nm NE)
10C - Galt Field Airport (17 nm SE)
44C - Beloit Airport (18 nm SW)
KJVL - Southern Wisconsin Regional Airport (19 nm W)
 
Loc | Ops | Rwys | IFR | FBO | Links
Com | Nav | Svcs | Stats | Notes
Area around C59 (Lake Lawn Airport)
 
Road maps at: MapQuest Bing Google
 
Aerial photo
WARNING: Photo may not be current or correct
Aerial photo of C59 (Lake Lawn Airport)
Photo by Robert A. Kadera
Photo taken 16-May-2007

Do you have a better or more recent aerial photo of Lake Lawn Airport that you would like to share? If so, please send us your photo.

 
Sectional chart

 
Airport distance calculator
Flying to Lake Lawn Airport? Find the distance to fly.

From to C59

Sunrise and sunset
Times for 17-Nov-2019
 Local
(UTC-6)
 Zulu
(UTC)
Morning civil twilight06:1912:19
Sunrise06:4912:49
Sunset16:2922:29
Evening civil twilight17:0023:00

Current date and time
Zulu (UTC)  17-Nov-2019 19:38:35
Local (UTC-6)  17-Nov-2019 13:38:35
 
METAR
KBUU 
14nm E 
171915Z AUTO 19003KT 10SM OVC060 01/M02 A2990 RMK AO2 T00081016
K57C 
14nm NE 
171915Z AUTO 19005KT 10SM OVC060 02/M02 A2989 RMK AO2 T00201016
KJVL 
18nm W 
171845Z 18006KT 6SM -DZ OVC037 03/01 A2990
TAF
KENW 
30nm E 
171736Z 1718/1818 18008KT P6SM OVC100 FM172200 19005KT 6SM -RA OVC029 FM180100 VRB03KT 4SM -RA OVC008 FM180600 00000KT P6SM OVC006 FM181500 31005KT P6SM OVC016
KUES 
31nm NE 
171736Z 1718/1818 15006KT P6SM BKN060 FM171900 17005KT P6SM -RA OVC050 FM172200 VRB04KT 5SM -RA OVC016 FM180000 VRB03KT 4SM -RA OVC006 FM180500 00000KT P6SM OVC007 FM181500 VRB04KT P6SM OVC016
KRFD 
34nm SW 
171744Z 1718/1818 17007KT P6SM -RA BKN050 OVC070 FM172200 21005KT 3SM -RA BR OVC012 FM180000 23005KT 4SM -RA BR OVC006 FM180300 27004KT 5SM -DZ BR OVC007 FM180700 30007KT P6SM OVC015
KMKE 
36nm NE 
171736Z 1718/1824 17007KT P6SM OVC100 FM172000 18007KT P6SM -RA OVC060 FM172200 19006KT 6SM -RA OVC030 FM180000 VRB04KT 4SM -RA OVC008 FM180600 00000KT P6SM OVC006 FM181100 VRB03KT P6SM OVC013
NOTAMs
Click for the latest NOTAMs
NOTAMs are issued by the DoD/FAA and will open in a separate window not controlled by AirNav.

 

 
 

Would you like to see your business listed on this page?

 If your business provides an interesting product or service to pilots, flight crews, aircraft, or users of the Lake Lawn Airport, you should consider listing it here.  To start the listing process, click on the button below
 
Add a business
 

Other Pages about Lake Lawn Airport

Page from the Wisconsin airport directory (PDF)
 
Update a link
 
Copyright © AirNav, LLC. All rights reserved. Privacy Policy  Contact